Weather History for KAVL - August, 2013

Change the Weather History Date:

Wednesday, August 21, 2013

  Actual Average Record
Temperature  
Mean Temperature 71 °F 73 °F  
Max Temperature 75 °F 83 °F 100 °F (1983)
Min Temperature 66 °F 63 °F 49 °F (1918)
Degree Days  
Heating Degree Days 0 0  
Month to date heating degree days 5 0  
Since 1 June heating degree days 5 14  
Since 1 July heating degree days 5 0  
Cooling Degree Days 6 8  
Month to date cooling degree days 140 179  
Year to date cooling degree days 663 689  
Since 1 June cooling degree days 612 631  
Growing Degree Days 20 (Base 50)    
Moisture  
Dew Point 67 °F    
Average Humidity 88    
Maximum Humidity 97    
Minimum Humidity 79    
Precipitation  
Precipitation 0.06 in 0.15 in 4.32 in (1990)
Month to date precipitation 6.90 2.98  
Year to date precipitation 58.68 30.19  
Snow  
Snow 0.00 in 0.00 in 0.00 in ()
Month to date snowfall 0.0 0.0  
Since 1 June snowfall 0.0 0.0  
Since 1 July snowfall 0.0 0.0  
Snow Depth 0.00 in    
Sea Level Pressure  
Sea Level Pressure 30.24 in    
Wind  
Wind Speed 2 mph (South)    
Max Wind Speed 12 mph    
Max Gust Speed 13 mph    
Visibility 10 miles    
Events Rain    
T = Trace of Precipitation, MM = Missing Value Source: NWS Daily Summary

Daily Weather History Graph

Daily Weather History Graph

Search for Another Location

Airport or City:

Trip Planner

Search our weather history database for the weather conditions in past years. The results will help you decide how hot, cold, wet, or windy it might be!

Date:

Astronomy

Aug. 21, 2013 Rise Set
Actual Time 6:54 AM EDT 8:11 PM EDT
Civil Twilight 6:27 AM EDT 8:38 PM EDT
Nautical Twilight 5:55 AM EDT 9:09 PM EDT
Astronomical Twilight 5:22 AM EDT 9:42 PM EDT
Moon 8:24 PM EDT (8/21) 7:29 AM EDT (8/21)
Length of Visible Light 14h 10m
Length of Day
13h 17m
Full, 100% of the Moon is Illuminated
Aug 21
Full
Aug 28
Last Quarter
Sep 5
New
Sep 12
First Quarter
Sep 19
Full

Hourly Weather History & Observations

Time (EDT) Temp. Dew Point Humidity Pressure Visibility Wind Dir Wind Speed Gust Speed Precip Events Conditions
12:01 AM 69.8 °F 66.2 °F 88% 30.28 in 10.0 mi SE 3.5 mph - N/A   Mostly Cloudy
12:31 AM 69.8 °F 66.2 °F 88% 30.28 in 10.0 mi Calm Calm - N/A   Overcast
12:39 AM 69.8 °F 66.2 °F 88% 30.29 in 10.0 mi South 3.5 mph - N/A   Overcast
12:54 AM 69.1 °F 66.9 °F 93% 30.21 in 10.0 mi Calm Calm - N/A   Overcast
1:12 AM 69.8 °F 66.2 °F 88% 30.28 in 10.0 mi Calm Calm - N/A   Overcast
1:54 AM 69.1 °F 66.9 °F 93% 30.19 in 10.0 mi Calm Calm - N/A   Overcast
2:36 AM 68.0 °F 66.2 °F 94% 30.26 in 10.0 mi Calm Calm - N/A   Mostly Cloudy
2:54 AM 68.0 °F 66.0 °F 93% 30.19 in 10.0 mi Calm Calm - N/A   Scattered Clouds
3:54 AM 66.9 °F 64.9 °F 93% 30.18 in 10.0 mi Calm Calm - N/A   Mostly Cloudy
4:05 AM 66.2 °F 66.2 °F 100% 30.25 in 10.0 mi Calm Calm - N/A   Mostly Cloudy
4:54 AM 66.9 °F 64.9 °F 93% 30.18 in 10.0 mi Calm Calm - N/A   Overcast
5:28 AM 66.2 °F 64.4 °F 94% 30.26 in 10.0 mi Calm Calm - N/A   Overcast
5:54 AM 66.9 °F 64.9 °F 93% 30.20 in 10.0 mi Calm Calm - N/A   Overcast
6:54 AM 66.9 °F 66.0 °F 97% 30.21 in 7.0 mi Calm Calm - 0.01 in Rain Rain
7:54 AM 66.9 °F 66.0 °F 97% 30.23 in 10.0 mi SSW 5.8 mph - 0.03 in   Overcast
8:16 AM 68.0 °F 66.2 °F 94% 30.29 in 10.0 mi Calm Calm - 0.01 in Rain Light Rain
8:32 AM 68.0 °F 66.2 °F 94% 30.29 in 10.0 mi Calm Calm - 0.01 in Rain Light Rain
8:41 AM 68.0 °F 66.2 °F 94% 30.29 in 10.0 mi Calm Calm - 0.01 in   Scattered Clouds
8:54 AM 68.0 °F 66.9 °F 96% 30.22 in 10.0 mi Calm Calm - 0.01 in   Mostly Cloudy
9:15 AM 68.0 °F 66.2 °F 94% 30.30 in 10.0 mi Calm Calm - N/A   Mostly Cloudy
9:25 AM 68.0 °F 66.2 °F 94% 30.30 in 10.0 mi Calm Calm - N/A   Mostly Cloudy
9:35 AM 69.8 °F 66.2 °F 88% 30.30 in 10.0 mi Calm Calm - N/A   Scattered Clouds
9:54 AM 69.1 °F 66.0 °F 90% 30.24 in 10.0 mi SE 3.5 mph - 0.00 in Rain Light Rain
10:28 AM 71.6 °F 66.2 °F 83% 30.31 in 10.0 mi South 6.9 mph - 0.00 in   Overcast
10:39 AM 71.6 °F 66.2 °F 83% 30.32 in 10.0 mi SSE 6.9 mph - 0.00 in   Mostly Cloudy
10:52 AM 71.6 °F 66.2 °F 83% 30.32 in 10.0 mi Calm Calm - 0.00 in   Mostly Cloudy
10:54 AM 72.0 °F 66.9 °F 84% 30.25 in 10.0 mi Calm Calm - 0.00 in   Mostly Cloudy
11:02 AM 71.6 °F 66.2 °F 83% 30.32 in 10.0 mi Calm Calm - N/A   Mostly Cloudy
11:54 AM 72.0 °F 66.0 °F 81% 30.25 in 10.0 mi South 4.6 mph - N/A   Overcast
12:19 PM 71.6 °F 66.2 °F 83% 30.32 in 10.0 mi South 9.2 mph - 0.00 in Rain Light Rain
12:54 PM 71.1 °F 66.9 °F 87% 30.25 in 10.0 mi South 6.9 mph - 0.01 in Rain Light Rain
1:54 PM 72.0 °F 68.0 °F 87% 30.22 in 10.0 mi South 6.9 mph - 0.00 in Rain Light Rain
2:02 PM 71.6 °F 68.0 °F 88% 30.29 in 10.0 mi South 6.9 mph - 0.00 in Rain Light Rain
2:54 PM 73.0 °F 66.9 °F 81% 30.19 in 10.0 mi South 4.6 mph - 0.00 in   Mostly Cloudy
3:03 PM 71.6 °F 66.2 °F 83% 30.26 in 10.0 mi SSW 5.8 mph - N/A   Mostly Cloudy
3:54 PM 73.0 °F 66.9 °F 81% 30.19 in 10.0 mi SSE 5.8 mph - N/A   Mostly Cloudy
4:54 PM 73.9 °F 66.9 °F 79% 30.18 in 10.0 mi Calm Calm - N/A   Mostly Cloudy
5:54 PM 73.9 °F 66.9 °F 79% 30.15 in 10.0 mi South 4.6 mph - N/A   Clear
6:54 PM 73.9 °F 68.0 °F 82% 30.16 in 10.0 mi Calm Calm - N/A   Clear
7:54 PM 72.0 °F 68.0 °F 87% 30.16 in 10.0 mi Calm Calm - N/A   Clear
8:54 PM 70.0 °F 68.0 °F 93% 30.16 in 10.0 mi Calm Calm - 0.00 in   Clear
9:54 PM 69.1 °F 68.0 °F 96% 30.19 in 10.0 mi Calm Calm - N/A   Clear
10:03 PM 69.8 °F 68.0 °F 94% 30.25 in 10.0 mi ESE 3.5 mph - N/A   Scattered Clouds
10:12 PM 69.8 °F 68.0 °F 94% 30.26 in 10.0 mi Calm Calm - N/A   Mostly Cloudy
10:54 PM 69.1 °F 66.9 °F 93% 30.18 in 10.0 mi Calm Calm - N/A   Mostly Cloudy
11:07 PM 68.0 °F 66.2 °F 94% 30.25 in 10.0 mi Calm Calm - N/A   Scattered Clouds
11:18 PM 68.0 °F 66.2 °F 94% 30.25 in 10.0 mi Calm Calm - N/A   Mostly Cloudy
11:54 PM 68.0 °F 66.9 °F 96% 30.17 in 10.0 mi Calm Calm - N/A   Overcast